DELTA 1 DEB, 26839

Orbit data source: Space-Track

DELTA 1 DEB, 26839 is space debris in SSO originally from a launch on Thu, 12 Jun 1975 UTC launched from the Air Force Western Test Range (AFWTR). Debris objects in space refer to the collection of defunct objects orbiting the Earth. Examples of debris include non-operational satellites, rocket bodies, and fragments generated from explosions, collisions, or faulty payload assembly.

Loading next visibility...
Identifier
26839, 1975-052KT
Orbit
SSO
Country
Flag of USUS
Related business
Manufacturer
Unknown
Mission
Spacecraft
Bus & Motor
Unknown
Mass
Unknown
Launch date (UTC)
1975-06-12 (50 years ago)
Launch vehicle
Unknown
Launch site
Air Force Western Test Range (AFWTR)
Object type
Payload
Rocket body
Debris
Shape & HBR
Unknown shape, 0.1 m
Radar Cross Section
Small (<0.1 m²)

Expand to show TLE details & history
Last TLE update: 1 day ago

TLE from 1 day ago
0 DELTA 1 DEB
1 26839U 75052KT  25299.75037669  .00000301  00000-0  71307-3 0  9992
2 26839 100.1130 226.1377 0083445  80.5452 309.7405 13.30978644635403
Epoch: 2025-10-26T18:00Z
TLE epoch observation values (Epoch: 2025-10-26T18:00:32.546Z)
Latitude
29.08924°
Longitude
-85.0256°
Altitude
1,106.721 km
Speed
7.321 km/s
True Right ascension
14h 41m 53s
True Declination
28° 57' 01"
Sunlit
Object was in daylight at epoch
Visualization orbit readout
Latitude
Unknown
Longitude
Unknown
Altitude
Unknown
Speed
Unknown
Apparent Right ascension
Unknown
Apparent Declination
Unknown
Sunlit
N/A
Visualization observer readout
Local Sidereal Time
16:42:08
Azimuth
Unknown
Elevation
Unknown
Doppler factor
Unknown
Orbital elements
Apogee altitude
1,203.161 km
Perigee altitude
1,077.684 km
Semi-major axis
7,518.559 km
Eccentricity
0.00834
Inclination
100.113°
RAAN
226.1377°
Arg. of periapsis
80.5452°
True anomaly
309.00031°
Mean anomaly
309.7405°
Eccentric anomaly
309.3709°
Mean motion
3.32921 °/min
Orbital period
108.13 mins
BSTAR
0.00071307
Loading maneuver chart data...
Computing Atmospheric mass density...
Loading historical data...
Loading historical data...
Loading historical data...
Loading historical data...
Loading historical data...
Loading historical data...
Loading historical data...

Documentation

Showing up to 5 results
|